Location: Unspecified
(0.0000°N, 0.0000°E)
Time: 19:39:13
(UTC+00:00)

BlueWalker 3 - Pass Details

Date: 24 March 2026
Orbit: 449 x 457 km, 53.2° (Epoch: 21 April)

Event Time Altitude Azimuth Distance (km) Brightness Sun altitude
Exits shadow 04:51:32 57° 286° (WNW) 537 1.7 -18.7°
Maximum altitude 04:52:02 67° 237° (WSW) 493 1.6 -18.6°
Drops below altitude 10° 04:55:35 10° 153° (SSE) 1,583 4.8 -17.7°
Sets 04:57:43 0° 150° (SSE) 2,456 5.8 -17.2°
